Location: Casteau
(50.5142°N, 4.0161°E)
Time: 18:31:41
(UTC+00:00)

Transit 2A - Pass Details

Date: 31 July 2021
Orbit: 594 x 964 km, 66.7° (Epoch: 26 September)

Event Time Altitude Azimuth Distance (km) Brightness Sun altitude
Rises 16:11:03 0° 311° (NW) 3,268 9.8 29.6°
Reaches altitude 10° 16:14:06 10° 293° (WNW) 2,407 9.7 29.1°
Maximum altitude 16:17:44 18° 252° (WSW) 1,971 10.1 28.5°
Drops below altitude 10° 16:21:34 10° 211° (SSW) 2,552 9.3 27.9°
Sets 16:24:56 0° 194° (SSW) 3,544 9.7 27.4°
